Tracking 28790 objects as of 19-Apr-2024
HD Live streaming from Space Station
objects crossing your sky now

SL-14 DEB

Track SL-14 DEB now!
10-day predictions


NORAD ID: 45273
Int'l Code: 1991-056K
Perigee: 1,011.0 km
Apogee: 1,189.0 km
Inclination: 82.6 °
Period: 107.1 minutes
Semi major axis: 7470 km
RCS: Unknown
Launch date: August 15, 1991
Source: Commonwealth of Independent States (former USSR) (CIS)
Launch site: PLESETSK MISSILE AND SPACE COMPLEX (PKMTR)

Note: This is SATELLITE DEBRIS
Your satellite tracking list
Your tracking list is empty




NASA's NSSDC Master Catalog

Two Line Element Set (TLE):
1 45273U 91056K   24109.54766058  .00003163  00000-0  51802-2 0  9990
2 45273  82.5652 289.4787 0119123  52.8716 308.3234 13.44429517204663
Source of the keplerian elements: AFSPC